Location: Thompson
(55.7500°N, 97.8670°W)
Time: 03:40:15
(UTC-05:00)

Amateur Radio Satellites - All Passes

Search period start: 25 June 2016 03:10
Search period end: 26 June 2016 03:10
Location: Thompson, 55.7500°N, 97.8670°W

Satellite Date Start Highest point End Downlink Frequencies (MHz)
Time Altitude Azimuth
BEESAT 25 Jun 03:10:36 03:15:18 57° 258° (WSW) 03:20:04 436.000
O/OREOS (USA 219) 25 Jun 03:22:35 03:24:06 12° 97° (E) 03:25:38 437.305
BUGSAT 1 25 Jun 03:23:26 03:26:31 21° 302° (WNW) 03:29:36 437.445
Cosmos 2504 25 Jun 03:23:28 03:32:00 53° 271° (W) 03:40:24 435.465 / 435.565
NANOSAT C BR1 25 Jun 03:23:44 03:25:50 14° 310° (NW) 03:27:58 145.865
QB50P1 25 Jun 03:24:22 03:26:22 13° 310° (NW) 03:28:23 145.935-145.965
AIST 1 25 Jun 03:24:51 03:26:25 12° 53° (NE) 03:28:00
POPSAT HIP 1 25 Jun 03:27:15 03:29:09 13° 311° (NW) 03:31:03 437.405
KKS-1 25 Jun 03:29:12 03:33:22 42° 64° (ENE) 03:37:33 437.445
YUBILEINY 25 Jun 03:31:41 03:37:50 22° 289° (WNW) 03:44:01 435.215
GONETS M04 25 Jun 03:36:56 03:42:17 17° 34° (NE) 03:47:39
QB50P2 25 Jun 03:39:31 03:40:13 10° 314° (NW) 03:40:54 145.880/145.840
POLYITAN 1 25 Jun 03:42:15 03:42:49 10° 314° (NW) 03:43:23 437.675
AO-7 25 Jun 03:49:58 03:56:00 21° 84° (E) 04:01:59 29.400- 29.500
BEESAT 3 25 Jun 03:53:37 03:55:07 12° 113° (ESE) 03:56:39 437.485
CUBESAT XI-V 25 Jun 04:07:16 04:10:24 18° 52° (NE) 04:13:32 437.345
STARS 25 Jun 04:12:27 04:16:42 55° 68° (ENE) 04:21:00 437.465
Gurwin Techsat 1B 25 Jun 04:13:21 04:18:43 86° 290° (WNW) 04:24:04 435.225
PCSat 25 Jun 04:16:35 04:21:45 46° 121° (ESE) 04:26:55 145.827
BEESAT 2 25 Jun 04:22:47 04:24:46 13° 114° (ESE) 04:26:44 435.950
Cosmos 2499 25 Jun 04:24:55 04:31:13 21° 39° (NE) 04:37:25 435.465 / 435.565
SWISSCUBE 25 Jun 04:25:11 04:28:00 15° 274° (W) 04:30:51 437.505
MOZHAYETS 4 25 Jun 04:25:56 04:30:34 81° 256° (WSW) 04:35:16
Oscar 19 25 Jun 04:29:40 04:34:21 37° 300° (WNW) 04:39:01 437.125/150
JAS-2 25 Jun 04:35:44 04:40:32 24° 313° (NW) 04:44:57 435.910
ITAMSAT 1 25 Jun 04:42:42 04:47:58 72° 105° (ESE) 04:53:12 435.822/435.867
AO-85 25 Jun 04:50:15 04:54:45 31° 12° (NNE) 04:58:55 145.980
Cosmos 2491 25 Jun 04:50:40 04:57:47 27° 312° (NW) 05:04:55 435.465 / 435.565
ITUPSAT 1 25 Jun 04:51:11 04:52:26 11° 278° (W) 04:53:41 437.325
BEESAT 25 Jun 04:53:36 04:54:11 10° 279° (W) 04:54:46 436.000
O/OREOS (USA 219) 25 Jun 04:58:11 05:02:39 66° 118° (ESE) 05:07:07 437.305
AIST 1 25 Jun 05:00:44 05:05:00 62° 75° (ENE) 05:09:13
KKS-1 25 Jun 05:06:05 05:10:04 32° 264° (W) 05:14:05 437.445
Cosmos 2504 25 Jun 05:18:42 05:23:20 16° 295° (WNW) 05:27:58 435.465 / 435.565
BEESAT 3 25 Jun 05:28:10 05:32:05 64° 132° (SE) 05:36:01 437.485
STRAND 1 25 Jun 05:28:31 05:31:15 15° 44° (NE) 05:33:58 437.568
GONETS M04 25 Jun 05:33:42 05:42:01 46° 63° (ENE) 05:50:18
AO-7 25 Jun 05:41:56 05:50:22 71° 108° (ESE) 05:58:43 29.400- 29.500
CUBESAT XI-V 25 Jun 05:42:26 05:47:10 82° 73° (ENE) 05:51:53 437.345
STARS 25 Jun 05:49:50 05:53:24 24° 268° (W) 05:56:59 437.465
Gurwin Techsat 1B 25 Jun 05:54:05 05:58:03 22° 309° (NW) 06:01:59 435.225
BEESAT 2 25 Jun 05:57:57 06:01:55 71° 134° (SE) 06:05:55 435.950
NOAA 15 25 Jun 05:58:28 05:59:24 10° 80° (E) 06:00:20 137.62
PCSat 25 Jun 05:59:50 06:05:10 53° 323° (NW) 06:10:31 145.827
MOZHAYETS 4 25 Jun 06:06:00 06:08:32 14° 276° (W) 06:11:04
AIST 2 25 Jun 06:09:52 06:11:08 11° 111° (ESE) 06:12:25 435.215
Oscar 19 25 Jun 06:11:32 06:12:23 10° 322° (NW) 06:13:15 437.125/150
HORYU 2 25 Jun 06:14:24 06:18:43 43° 99° (E) 06:23:00 437.375
Cosmos 2499 25 Jun 06:18:04 06:26:48 54° 67° (ENE) 06:35:14 435.465 / 435.565
Cubesat XI-IV 25 Jun 06:20:00 06:22:15 12° 81° (E) 06:24:29 437.490
ITAMSAT 1 25 Jun 06:22:42 06:27:03 27° 306° (NW) 06:31:23 435.822/435.867
AO-85 25 Jun 06:31:08 06:36:01 65° 36° (NE) 06:40:26 145.980
BRITE-PL 25 Jun 06:36:28 06:39:13 17° 87° (E) 06:41:55 437.365/2234.400
O/OREOS (USA 219) 25 Jun 06:38:33 06:42:27 28° 319° (NW) 06:46:21 437.305
AIST 1 25 Jun 06:39:07 06:42:11 19° 275° (W) 06:45:14
CUSAT 1 25 Jun 06:42:33 06:44:19 11° 74° (ENE) 06:46:01 437.405
CUTE-I 25 Jun 06:54:22 06:58:34 23° 89° (E) 07:02:44 437.470
Cosmos 2491 25 Jun 06:55:53 06:58:50 12° 344° (NNW) 07:01:47 435.465 / 435.565
STRAND 1 25 Jun 07:04:25 07:09:26 54° 66° (ENE) 07:14:29 437.568
BEESAT 3 25 Jun 07:06:22 07:10:02 35° 334° (NNW) 07:13:43 437.485
PRISM 25 Jun 07:20:17 07:22:55 17° 53° (NE) 07:25:34 437.425
NOAA 18 25 Jun 07:20:37 07:25:43 36° 96° (E) 07:30:47 137.9125
CUBESAT XI-V 25 Jun 07:21:54 07:25:09 18° 273° (W) 07:28:25 437.345
GOMX 1 25 Jun 07:29:51 07:33:18 24° 92° (E) 07:36:46 467.674
GONETS M04 25 Jun 07:30:45 07:39:15 61° 268° (W) 07:47:46
AO-7 25 Jun 07:35:05 07:42:49 43° 311° (NW) 07:50:31 29.400- 29.500
NOAA 15 25 Jun 07:35:16 07:40:27 54° 101° (E) 07:45:35 137.62
BEESAT 2 25 Jun 07:36:25 07:40:05 33° 336° (NNW) 07:43:46 435.950
AIST 2 25 Jun 07:44:45 07:48:48 58° 131° (SE) 07:52:54 435.215
PCSat 25 Jun 07:45:03 07:49:41 27° 348° (NNW) 07:54:19 145.827
HORYU 2 25 Jun 07:51:10 07:55:12 33° 299° (WNW) 07:59:13 437.375
LilacSat-2 25 Jun 07:54:18 07:58:09 60° 102° (ESE) 08:02:00 437.200
Cubesat XI-IV 25 Jun 07:58:06 08:03:29 61° 102° (ESE) 08:08:49 437.490
DANDE 25 Jun 08:05:11 08:11:39 26° 81° (E) 08:17:41 436.750
Cosmos 2499 25 Jun 08:11:32 08:20:03 52° 271° (W) 08:28:15 435.465 / 435.565
AO-85 25 Jun 08:12:04 08:16:13 31° 239° (WSW) 08:20:02 145.980
BRITE-PL 25 Jun 08:14:04 08:18:21 73° 288° (WNW) 08:22:28 437.365/2234.400
CUSAT 1 25 Jun 08:17:58 08:25:08 44° 93° (E) 08:31:13 437.405
O/OREOS (USA 219) 25 Jun 08:21:37 08:23:23 12° 344° (NNW) 08:25:10 437.305
CUTE-I 25 Jun 08:33:49 08:39:14 79° 290° (WNW) 08:44:37 437.470
CINEMA 3 25 Jun 08:36:28 08:39:46 20° 90° (E) 08:43:09 145.822/145.860
UNISAT 6 25 Jun 08:36:39 08:37:18 10° 44° (NE) 08:37:59 437.425
STRAND 1 25 Jun 08:44:19 08:48:53 31° 266° (W) 08:53:29 437.568
BEESAT 3 25 Jun 08:45:31 08:48:40 22° 358° (N) 08:51:49 437.485
AAUSAT CUBESAT 2 25 Jun 08:48:38 08:49:25 10° 82° (E) 08:50:12 437.432
DOVE 4 25 Jun 08:49:23 08:53:34 63° 102° (ESE) 08:57:52 437.250
PRISM 25 Jun 08:53:31 08:57:41 89° 85° (E) 09:01:53 437.425
Cosmos 2491 25 Jun 08:57:44 09:01:07 12° 19° (NNE) 09:04:30 435.465 / 435.565
CANX-2 25 Jun 08:59:42 09:03:32 30° 94° (E) 09:07:20 2200.000
CUBEBUG 2 25 Jun 09:00:28 09:02:43 13° 85° (E) 09:04:58 437.445
NOAA 18 25 Jun 09:01:14 09:06:37 53° 296° (WNW) 09:11:59 137.9125
GOMX 1 25 Jun 09:07:40 09:11:42 48° 292° (WNW) 09:15:44 467.674
HO-68 25 Jun 09:13:28 09:20:16 42° 97° (E) 09:27:02 435.675
ANTELSAT 25 Jun 09:13:47 09:16:46 18° 53° (NE) 09:19:48 437.575/2403.000
NOAA 15 25 Jun 09:15:22 09:20:05 34° 302° (WNW) 09:24:46 137.62
BEESAT 2 25 Jun 09:15:43 09:18:55 22° 359° (N) 09:22:05 435.950
COMPASS 1 25 Jun 09:16:52 09:20:13 22° 91° (E) 09:23:32 437.405
CUTE 1.7 + AOD 2 25 Jun 09:20:21 09:24:27 40° 97° (E) 09:28:29 437.475
AIST 2 25 Jun 09:23:36 09:27:30 38° 333° (NNW) 09:31:26 435.215
AO-7 25 Jun 09:28:02 09:33:39 20° 337° (NNW) 09:39:17 29.400- 29.500
GONETS M04 25 Jun 09:29:08 09:34:15 17° 292° (WNW) 09:39:22
LilacSat-2 25 Jun 09:29:16 09:32:09 20° 301° (WNW) 09:35:01 437.200
PCSat 25 Jun 09:30:00 09:34:39 27° 13° (NNE) 09:39:18 145.827
SEEDS 25 Jun 09:31:28 09:35:29 38° 97° (E) 09:39:28 437.485
M-CUBED/EXP-1 PRIME 25 Jun 09:36:55 09:38:30 12° 96° (E) 09:40:04 437.505
Cubesat XI-IV 25 Jun 09:38:35 09:43:19 32° 303° (WNW) 09:48:01 437.490
ZACube-1 25 Jun 09:43:19 09:46:11 16° 87° (E) 09:49:04 437.345
DANDE 25 Jun 09:45:15 09:53:42 80° 101° (E) 10:01:21 436.750
JAS-2 25 Jun 09:45:22 09:47:39 12° 30° (NNE) 09:49:52 435.910
QB50P2 25 Jun 09:53:10 09:54:20 11° 47° (NE) 09:55:30 145.880/145.840
BRITE-PL 25 Jun 09:53:57 09:56:08 14° 310° (NW) 09:58:17 437.365/2234.400
UWE-3 25 Jun 09:54:58 09:58:50 27° 93° (E) 10:02:46 435.000/436.395/437.385
POLYITAN 1 25 Jun 09:55:42 09:56:57 11° 47° (NE) 09:58:11 437.675
CUSAT 1 25 Jun 09:59:41 10:07:13 56° 291° (WNW) 10:13:28 437.405
Oscar 11 25 Jun 10:00:27 10:03:55 22° 91° (E) 10:07:22 145.826/435.025
DUCHIFAT 1 25 Jun 10:00:45 10:01:54 11° 47° (NE) 10:03:04 145.980
FUNcube-1 25 Jun 10:02:37 10:06:09 22° 90° (E) 10:09:42 145.935
O/OREOS (USA 219) 25 Jun 10:03:43 10:04:54 11° 10° (N) 10:06:05 437.305
TIGRISAT 25 Jun 10:05:10 10:09:11 40° 65° (ENE) 10:13:20 435.000
Cosmos 2499 25 Jun 10:06:32 10:11:03 15° 296° (WNW) 10:15:32 435.465 / 435.565
UNISAT 6 25 Jun 10:08:52 10:13:00 45° 66° (ENE) 10:17:14 437.425
CINEMA 3 25 Jun 10:12:59 10:17:21 68° 289° (WNW) 10:21:53 145.822/145.860
CUTE-I 25 Jun 10:14:43 10:18:35 20° 311° (NW) 10:22:26 437.470
AAUSAT CUBESAT 2 25 Jun 10:21:34 10:25:46 67° 103° (ESE) 10:29:56 437.432
BEESAT 3 25 Jun 10:23:50 10:27:23 30° 21° (NNE) 10:30:55 437.485
DOVE 4 25 Jun 10:27:47 10:31:00 22° 302° (WNW) 10:34:17 437.250
PRISM 25 Jun 10:31:20 10:33:38 14° 273° (W) 10:35:56 437.425
AUBIESAT-1 25 Jun 10:33:58 10:37:23 34° 105° (ESE) 10:41:00 437.475
CANX-2 25 Jun 10:35:27 10:39:33 43° 294° (WNW) 10:43:36 2200.000
CUBEBUG 2 25 Jun 10:35:34 10:40:05 77° 104° (ESE) 10:44:43 437.445
NOAA 18 25 Jun 10:43:05 10:46:13 16° 318° (NW) 10:49:22 137.9125
ANTELSAT 25 Jun 10:48:37 10:52:56 87° 251° (WSW) 10:57:24 437.575/2403.000
COMPASS 1 25 Jun 10:51:58 10:56:07 56° 291° (WNW) 11:00:13 437.405
BEESAT 2 25 Jun 10:54:08 10:57:45 31° 23° (NNE) 11:01:23 435.950
Cosmos 2491 25 Jun 10:54:33 11:01:57 29° 51° (NE) 11:09:17 435.465 / 435.565
CUTE 1.7 + AOD 2 25 Jun 10:56:23 11:00:15 33° 297° (WNW) 11:04:05 437.475
NOAA 15 25 Jun 10:57:55 10:58:29 10° 324° (NW) 10:59:03 137.62
HO-68 25 Jun 11:01:15 11:08:19 59° 299° (WNW) 11:15:21 435.675
AIST 2 25 Jun 11:03:33 11:06:56 23° 356° (N) 11:10:20 435.215
DELFI C3 25 Jun 11:04:57 11:08:47 40° 98° (E) 11:12:34 145.870
SEEDS 25 Jun 11:07:18 11:11:10 33° 297° (WNW) 11:14:59 437.485
M-CUBED/EXP-1 PRIME 25 Jun 11:09:54 11:13:33 86° 120° (ESE) 11:17:27 437.505
BUGSAT 1 25 Jun 11:10:20 11:13:14 20° 57° (ENE) 11:16:10 437.445
NANOSAT C BR1 25 Jun 11:10:31 11:14:21 36° 64° (ENE) 11:18:13 145.865
QB50P1 25 Jun 11:11:14 11:15:07 38° 65° (ENE) 11:19:02 145.935-145.965
PCSat 25 Jun 11:13:45 11:19:08 55° 38° (NE) 11:24:28 145.827
POPSAT HIP 1 25 Jun 11:14:03 11:17:57 39° 65° (ENE) 11:21:54 437.405
ZACube-1 25 Jun 11:18:34 11:23:05 87° 286° (WNW) 11:27:39 437.345
AO-7 25 Jun 11:19:01 11:23:32 16° 4° (N) 11:28:02 29.400- 29.500
JAS-2 25 Jun 11:24:34 11:30:53 31° 53° (NE) 11:36:40 435.910
QB50P2 25 Jun 11:25:11 11:29:16 51° 68° (ENE) 11:33:23 145.880/145.840
POLYITAN 1 25 Jun 11:27:48 11:31:52 52° 68° (ENE) 11:36:00 437.675
HUMSAT D 25 Jun 11:28:45 11:32:47 37° 97° (E) 11:36:49 437.325/437.525
DANDE 25 Jun 11:29:37 11:37:13 37° 302° (WNW) 11:44:05 436.750
UWE-3 25 Jun 11:31:11 11:35:33 51° 292° (WNW) 11:40:00 435.000/436.395/437.385
DUCHIFAT 1 25 Jun 11:32:41 11:36:44 52° 68° (ENE) 11:40:49 145.980
Oscar 11 25 Jun 11:36:06 11:40:26 59° 290° (WNW) 11:44:43 145.826/435.025
FUNcube-1 25 Jun 11:38:21 11:42:47 63° 289° (WNW) 11:47:16 145.935
TIGRISAT 25 Jun 11:42:07 11:46:00 32° 265° (W) 11:50:00 435.000
O/OREOS (USA 219) 25 Jun 11:42:30 11:46:02 22° 35° (NE) 11:49:34 437.305
CUSAT 1 25 Jun 11:45:50 11:50:31 18° 311° (NW) 11:54:42 437.405
UNISAT 6 25 Jun 11:46:08 11:49:55 29° 266° (W) 11:53:47 437.425
ISS 25 Jun 11:48:38 11:50:53 17° 151° (SSE) 11:53:06 145.825
CINEMA 3 25 Jun 11:51:32 11:53:49 14° 309° (NW) 11:56:09 145.822/145.860
ESTCUBE 1 25 Jun 11:55:59 11:59:02 18° 88° (E) 12:02:04 437.505/2401.250
AAUSAT CUBESAT 2 25 Jun 11:57:43 12:00:53 21° 303° (WNW) 12:04:01 437.432
BEESAT 3 25 Jun 12:01:31 12:05:30 87° 222° (SW) 12:09:29 437.485
AUBIESAT-1 25 Jun 12:08:34 12:11:54 33° 302° (WNW) 12:15:25 437.475
CUBEBUG 2 25 Jun 12:12:57 12:16:18 21° 303° (WNW) 12:19:42 437.445
AISAT 25 Jun 12:15:33 12:18:32 17° 89° (E) 12:21:28 437.250
Gurwin Techsat 1B 25 Jun 12:25:18 12:28:33 17° 46° (NE) 12:31:48 435.225
ANTELSAT 25 Jun 12:28:03 12:30:24 14° 275° (W) 12:32:47 437.575/2403.000
COMPASS 1 25 Jun 12:29:21 12:30:50 12° 311° (NW) 12:32:19 437.405
BEESAT 2 25 Jun 12:31:58 12:35:59 80° 224° (SW) 12:39:59 435.950
RS-15 25 Jun 12:35:09 12:45:01 35° 106° (ESE) 12:55:16 29.354- 29.394
UKube-1 25 Jun 12:36:02 12:38:52 17° 89° (E) 12:41:41 .
Oscar 19 25 Jun 12:36:14 12:40:40 30° 57° (ENE) 12:45:07 437.125/150
DELFI C3 25 Jun 12:40:03 12:43:34 29° 298° (WNW) 12:47:02 145.870
AIST 2 25 Jun 12:42:45 12:46:30 30° 20° (NNE) 12:50:13 435.215
50 SAT 25 Jun 12:43:24 12:46:40 28° 95° (E) 12:49:53 437.505
BUGSAT 1 25 Jun 12:44:15 12:48:15 68° 257° (WSW) 12:52:17 437.445
SPROUT 25 Jun 12:44:49 12:47:25 16° 87° (E) 12:50:01 437.525
M-CUBED/EXP-1 PRIME 25 Jun 12:45:27 12:47:44 16° 311° (NW) 12:50:06 437.505
NANOSAT C BR1 25 Jun 12:46:18 12:50:08 34° 264° (W) 12:54:00 145.865
QB50P1 25 Jun 12:47:11 12:50:59 33° 264° (W) 12:54:49 145.935-145.965
DX 1 25 Jun 12:48:25 12:52:03 25° 93° (E) 12:55:38 434.975-435.025
YUBILEINY 25 Jun 12:48:55 12:56:09 31° 78° (ENE) 13:03:27 435.215
HO-68 25 Jun 12:49:39 12:54:48 22° 322° (NW) 12:59:57 435.675
POPSAT HIP 1 25 Jun 12:50:06 12:53:51 31° 265° (W) 12:57:38 437.405
Cosmos 2491 25 Jun 12:51:26 13:00:15 84° 77° (ENE) 13:08:59 435.465 / 435.565
ITAMSAT 1 25 Jun 12:53:33 12:55:52 13° 41° (NE) 12:58:11 435.822/435.867
ZACube-1 25 Jun 12:55:49 12:58:48 18° 306° (NW) 13:01:49 437.345
PCSat 25 Jun 12:57:22 13:02:30 43° 240° (WSW) 13:07:35 145.827
QB50P2 25 Jun 13:01:54 13:05:21 24° 268° (W) 13:08:50 145.880/145.840
HUMSAT D 25 Jun 13:04:29 13:08:24 35° 297° (WNW) 13:12:21 437.325/437.525
POLYITAN 1 25 Jun 13:04:34 13:07:59 24° 268° (W) 13:11:25 437.675
AO-7 25 Jun 13:07:18 13:13:34 25° 31° (NNE) 13:19:51 29.400- 29.500
JAS-2 25 Jun 13:07:45 13:15:24 86° 253° (WSW) 13:22:18 435.910
DUCHIFAT 1 25 Jun 13:09:20 13:12:43 24° 268° (W) 13:16:08 145.980
UWE-3 25 Jun 13:09:31 13:11:07 12° 312° (NW) 13:12:44 435.000/436.395/437.385
VELOX 1 25 Jun 13:10:46 13:15:02 47° 100° (E) 13:19:16 145.980
CUBEBUG 1 25 Jun 13:12:27 13:16:42 52° 100° (E) 13:20:56 437.445
Oscar 11 25 Jun 13:13:48 13:15:44 13° 311° (NW) 13:17:40 145.826/435.025
FUNcube-1 25 Jun 13:16:00 13:18:16 14° 310° (NW) 13:20:33 145.935
DANDE 25 Jun 13:18:20 13:22:21 14° 325° (NW) 13:26:07 436.750
O/OREOS (USA 219) 25 Jun 13:21:36 13:26:06 85° 58° (ENE) 13:30:36 437.305
ISS 25 Jun 13:23:42 13:26:45 36° 170° (S) 13:29:48 145.825
ESTCUBE 1 25 Jun 13:31:54 13:36:27 81° 289° (WNW) 13:40:57 437.505/2401.250
BEESAT 3 25 Jun 13:40:04 13:42:40 17° 243° (WSW) 13:45:16 437.485
AISAT 25 Jun 13:51:09 13:55:34 78° 288° (WNW) 13:59:57 437.250
Gurwin Techsat 1B 25 Jun 14:02:22 14:07:36 62° 67° (ENE) 14:12:53 435.225
BEESAT 2 25 Jun 14:10:50 14:13:14 15° 245° (WSW) 14:15:37 435.950
UKube-1 25 Jun 14:11:08 14:15:28 79° 290° (WNW) 14:19:47 .
Oscar 19 25 Jun 14:14:39 14:19:45 60° 258° (WSW) 14:24:52 437.125/150
50 SAT 25 Jun 14:16:59 14:20:26 36° 295° (WNW) 14:23:51 437.505
TISAT 1 25 Jun 14:17:50 14:21:38 31° 96° (E) 14:25:24 437.305
Cosmos 2504 25 Jun 14:17:59 14:25:06 34° 80° (E) 14:32:35 435.465 / 435.565
SPROUT 25 Jun 14:19:41 14:23:59 84° 289° (WNW) 14:28:17 437.525
AIST 2 25 Jun 14:21:15 14:25:27 88° 41° (NE) 14:29:38 435.215
DX 1 25 Jun 14:24:17 14:28:31 52° 293° (WNW) 14:32:44 434.975-435.025
ITAMSAT 1 25 Jun 14:29:15 14:34:12 46° 63° (ENE) 14:39:13 435.822/435.867
SWISSCUBE 25 Jun 14:38:13 14:41:08 16° 86° (E) 14:44:01 437.505
HO-68 25 Jun 14:38:16 14:40:01 11° 348° (NNW) 14:41:47 435.675
YUBILEINY 25 Jun 14:43:20 14:52:04 84° 281° (WNW) 15:00:56 435.215
RS-15 25 Jun 14:44:21 14:56:00 85° 135° (SE) 15:08:18 29.354- 29.394
VELOX 1 25 Jun 14:47:32 14:51:22 30° 300° (WNW) 14:55:12 145.980
Cosmos 2491 25 Jun 14:49:00 14:56:13 31° 282° (WNW) 15:03:25 435.465 / 435.565
CUBEBUG 1 25 Jun 14:49:11 14:52:48 27° 301° (WNW) 14:56:24 437.445
JAS-2 25 Jun 14:55:17 15:01:14 25° 273° (W) 15:06:51 435.910
AO-7 25 Jun 14:56:46 15:04:50 57° 56° (NE) 15:12:59 29.400- 29.500
ISS 25 Jun 14:59:47 15:02:50 36° 190° (S) 15:05:52 145.825
O/OREOS (USA 219) 25 Jun 15:02:00 15:04:55 17° 259° (WSW) 15:07:52 437.305
ITUPSAT 1 25 Jun 15:02:03 15:05:47 22° 90° (E) 15:09:29 437.325
BEESAT 25 Jun 15:03:23 15:07:10 23° 90° (E) 15:10:56 436.000
ESTCUBE 1 25 Jun 15:09:43 15:12:37 17° 309° (NW) 15:15:30 437.505/2401.250
AISAT 25 Jun 15:28:44 15:31:24 16° 309° (NW) 15:34:03 437.250
Gurwin Techsat 1B 25 Jun 15:43:24 15:47:57 28° 268° (W) 15:52:33 435.225
HORYU 2 25 Jun 15:44:41 15:47:52 20° 54° (NE) 15:51:05 437.375
UKube-1 25 Jun 15:48:17 15:50:54 16° 309° (NW) 15:53:31 .
NOAA 15 25 Jun 15:48:57 15:50:17 11° 38° (NE) 15:51:37 137.62
TISAT 1 25 Jun 15:53:27 15:57:23 39° 295° (WNW) 16:01:18 437.305
SPROUT 25 Jun 15:56:41 15:59:22 16° 307° (NW) 16:02:01 437.525
Oscar 19 25 Jun 15:58:23 16:00:12 12° 279° (W) 16:02:01 437.125/150
AIST 2 25 Jun 16:00:28 16:03:27 19° 243° (WSW) 16:06:26 435.215
DX 1 25 Jun 16:02:18 16:03:50 12° 314° (NW) 16:05:21 434.975-435.025
ITAMSAT 1 25 Jun 16:08:58 16:13:49 38° 263° (W) 16:18:42 435.822/435.867
Cosmos 2504 25 Jun 16:09:31 16:17:46 78° 285° (WNW) 16:26:36 435.465 / 435.565
Cubesat XI-IV 25 Jun 16:12:27 16:14:32 12° 39° (NE) 16:16:36 437.490
MOZHAYETS 4 25 Jun 16:14:22 16:17:11 16° 85° (E) 16:19:59
SWISSCUBE 25 Jun 16:14:50 16:19:42 84° 107° (ESE) 16:24:31 437.505
BRITE-PL 25 Jun 16:19:18 16:20:46 11° 47° (NE) 16:22:13 437.365/2234.400
HO-68 25 Jun 16:22:39 16:24:46 11° 15° (NNE) 16:26:53 435.675
ISS 25 Jun 16:36:30 16:38:42 17° 209° (SSW) 16:40:55 145.825
ITUPSAT 1 25 Jun 16:39:18 16:44:08 71° 290° (WNW) 16:48:55 437.325
BEESAT 25 Jun 16:40:38 16:45:26 68° 290° (WNW) 16:50:12 436.000
YUBILEINY 25 Jun 16:43:00 16:50:22 29° 309° (NW) 16:57:49 435.215
CUTE-I 25 Jun 16:45:55 16:49:30 19° 47° (NE) 16:53:07 437.470
KKS-1 25 Jun 16:48:56 16:52:49 29° 94° (E) 16:56:42 437.445
AO-7 25 Jun 16:49:45 16:57:49 51° 259° (W) 17:05:59 29.400- 29.500
RS-15 25 Jun 16:57:52 17:09:36 60° 345° (NNW) 17:21:50 29.354- 29.394
SO-50 25 Jun 17:03:14 17:06:22 17° 114° (ESE) 17:09:31 436.795
GOMX 1 25 Jun 17:10:01 17:12:03 13° 51° (NE) 17:14:03 467.674
LilacSat-2 25 Jun 17:11:13 17:13:18 14° 54° (NE) 17:15:24 437.200
NOAA 18 25 Jun 17:15:10 17:19:53 30° 55° (NE) 17:24:38 137.9125
HORYU 2 25 Jun 17:19:30 17:23:56 83° 252° (WSW) 17:28:27 437.375
NOAA 15 25 Jun 17:23:56 17:28:44 37° 60° (ENE) 17:33:34 137.62
STARS 25 Jun 17:30:29 17:34:36 37° 97° (E) 17:38:41 437.465
CUBESAT XI-V 25 Jun 17:32:58 17:35:06 13° 83° (E) 17:37:12 437.345
AIST 1 25 Jun 17:38:25 17:41:55 24° 87° (E) 17:45:23
Cubesat XI-IV 25 Jun 17:48:22 17:53:21 42° 61° (ENE) 17:58:24 437.490
MOZHAYETS 4 25 Jun 17:50:22 17:55:04 87° 104° (ESE) 17:59:44
SWISSCUBE 25 Jun 17:53:23 17:56:59 21° 307° (NW) 18:00:35 437.505
BRITE-PL 25 Jun 17:53:36 17:58:23 48° 67° (ENE) 18:02:50 437.365/2234.400
HO-68 25 Jun 18:04:43 18:10:06 24° 40° (NE) 18:15:29 435.675
Cosmos 2504 25 Jun 18:05:53 18:12:48 27° 311° (NW) 18:20:03 435.465 / 435.565
ITUPSAT 1 25 Jun 18:18:13 18:21:13 17° 311° (NW) 18:24:14 437.325
BEESAT 25 Jun 18:19:33 18:22:28 16° 311° (NW) 18:25:21 436.000
CUTE-I 25 Jun 18:23:25 18:28:44 70° 69° (ENE) 18:34:07 437.470
KKS-1 25 Jun 18:25:20 18:29:36 47° 294° (WNW) 18:33:52 437.445
DOVE 4 25 Jun 18:25:46 18:29:13 24° 60° (ENE) 18:32:37 437.250
CANX-2 25 Jun 18:27:02 18:28:31 12° 48° (NE) 18:30:01 2200.000
DANDE 25 Jun 18:36:11 18:41:25 25° 50° (NE) 18:45:38 436.750
SO-50 25 Jun 18:41:17 18:46:10 72° 134° (SE) 18:51:00 436.795
LilacSat-2 25 Jun 18:43:15 18:47:03 88° 82° (E) 18:50:54 437.200
GOMX 1 25 Jun 18:44:56 18:49:28 63° 71° (ENE) 18:53:45 467.674
GONETS M04 25 Jun 18:45:11 18:52:53 37° 82° (E) 19:00:34
CUSAT 1 25 Jun 18:46:03 18:50:37 38° 63° (ENE) 18:54:08 437.405
CUTE 1.7 + AOD 2 25 Jun 18:46:39 18:49:01 15° 52° (NE) 18:51:23 437.475
YUBILEINY 25 Jun 18:47:43 18:51:11 13° 341° (NNW) 18:54:40 435.215
AO-7 25 Jun 18:49:05 18:52:51 13° 283° (WNW) 18:56:38 29.400- 29.500
NOAA 18 25 Jun 18:54:46 19:00:14 67° 256° (WSW) 19:05:44 137.9125
SEEDS 25 Jun 18:57:05 18:59:17 14° 51° (NE) 19:01:28 437.485
HORYU 2 25 Jun 18:58:54 19:01:15 14° 274° (W) 19:03:37 437.375
NOAA 15 25 Jun 19:03:18 19:08:27 50° 260° (W) 19:13:37 137.62
Cosmos 2499 25 Jun 19:04:14 19:11:30 34° 80° (E) 19:19:04 435.465 / 435.565
STARS 25 Jun 19:06:56 19:10:59 37° 297° (WNW) 19:15:01 437.465
CUBESAT XI-V 25 Jun 19:08:40 19:13:22 73° 103° (ESE) 19:17:59 437.345
STRAND 1 25 Jun 19:10:18 19:10:49 10° 80° (E) 19:11:20 437.568
RS-15 25 Jun 19:12:21 19:24:21 61° 17° (NNE) 19:36:38 29.354- 29.394
AIST 1 25 Jun 19:15:03 19:19:16 50° 288° (WNW) 19:23:29
UWE-3 25 Jun 19:26:33 19:27:40 11° 47° (NE) 19:28:47 435.000/436.395/437.385
Cubesat XI-IV 25 Jun 19:28:22 19:33:28 44° 262° (W) 19:38:37 437.490
MOZHAYETS 4 25 Jun 19:28:22 19:31:43 20° 306° (NW) 19:35:02
BRITE-PL 25 Jun 19:32:35 19:37:03 32° 265° (W) 19:41:15 437.365/2234.400
AAUSAT CUBESAT 2 25 Jun 19:44:45 19:47:51 20° 57° (ENE) 19:50:58 437.432
CINEMA 3 25 Jun 19:45:24 19:49:16 40° 65° (ENE) 19:53:12 145.822/145.860
HO-68 25 Jun 19:49:38 19:56:43 66° 63° (ENE) 20:03:51 435.675
AUBIESAT-1 25 Jun 19:53:58 19:56:34 21° 52° (NE) 19:59:11 437.475
CANX-2 25 Jun 19:59:19 20:03:30 54° 69° (ENE) 20:07:44 2200.000
DOVE 4 25 Jun 20:02:31 20:06:45 54° 260° (W) 20:10:52 437.250
KKS-1 25 Jun 20:04:00 20:05:13 11° 315° (NW) 20:06:25 437.445
CUTE-I 25 Jun 20:04:56 20:09:19 25° 269° (W) 20:13:45 437.470
CUBEBUG 2 25 Jun 20:05:29 20:08:57 25° 59° (ENE) 20:12:29 437.445
Cosmos 2504 25 Jun 20:06:56 20:10:13 12° 342° (NNW) 20:13:31 435.465 / 435.565
COMPASS 1 25 Jun 20:14:25 20:18:21 39° 65° (ENE) 20:22:18 437.405
DANDE 25 Jun 20:18:58 20:25:16 79° 258° (WSW) 20:29:52 436.750
CUTE 1.7 + AOD 2 25 Jun 20:19:54 20:24:10 73° 73° (ENE) 20:28:29 437.475
LilacSat-2 25 Jun 20:20:16 20:21:58 13° 274° (W) 20:23:41 437.200
SO-50 25 Jun 20:22:23 20:27:01 41° 336° (NNW) 20:31:35 436.795
GOMX 1 25 Jun 20:24:28 20:27:58 21° 269° (W) 20:31:20 467.674
DELFI C3 25 Jun 20:25:45 20:27:33 13° 51° (NE) 20:29:20 145.870
CUSAT 1 25 Jun 20:28:33 20:32:30 27° 273° (W) 20:35:38 437.405
M-CUBED/EXP-1 PRIME 25 Jun 20:29:39 20:32:50 52° 62° (ENE) 20:36:05 437.505
SEEDS 25 Jun 20:30:01 20:34:15 69° 72° (ENE) 20:38:32 437.485
NOAA 18 25 Jun 20:39:10 20:41:59 14° 277° (W) 20:44:50 137.9125
GONETS M04 25 Jun 20:40:30 20:49:12 71° 287° (WNW) 20:57:56
ZACube-1 25 Jun 20:46:05 20:49:47 30° 61° (ENE) 20:53:33 437.345
STRAND 1 25 Jun 20:46:09 20:51:14 53° 101° (E) 20:56:16 437.568
CUBESAT XI-V 25 Jun 20:46:44 20:50:20 23° 304° (NW) 20:53:55 437.345
YUBILEINY 25 Jun 20:50:21 20:53:27 12° 16° (NNE) 20:56:34 435.215
HUMSAT D 25 Jun 20:54:10 20:56:13 13° 50° (NE) 20:58:17 437.325/437.525
Cosmos 2499 25 Jun 20:55:26 21:03:53 79° 284° (WNW) 21:12:50 435.465 / 435.565
UWE-3 25 Jun 20:59:07 21:03:11 50° 68° (ENE) 21:07:23 435.000/436.395/437.385
Oscar 11 25 Jun 21:02:01 21:06:07 42° 66° (ENE) 21:10:16 145.826/435.025
FUNcube-1 25 Jun 21:05:11 21:09:08 40° 65° (ENE) 21:13:11 145.935
AAUSAT CUBESAT 2 25 Jun 21:18:44 21:22:56 71° 257° (WSW) 21:27:10 437.432
CINEMA 3 25 Jun 21:22:55 21:26:35 29° 266° (W) 21:30:17 145.822/145.860
RS-15 25 Jun 21:25:38 21:37:55 83° 227° (SW) 21:50:17 29.354- 29.394
AUBIESAT-1 25 Jun 21:27:43 21:30:53 45° 253° (WSW) 21:34:08 437.475
CANX-2 25 Jun 21:36:11 21:39:41 24° 269° (W) 21:43:13 2200.000
HO-68 25 Jun 21:38:24 21:44:56 37° 266° (W) 21:51:31 435.675
CUBEBUG 2 25 Jun 21:41:16 21:45:20 53° 260° (W) 21:49:34 437.445
COMPASS 1 25 Jun 21:50:12 21:54:00 32° 265° (W) 21:57:50 437.405
CUTE 1.7 + AOD 2 25 Jun 21:57:33 22:00:31 18° 272° (W) 22:03:32 437.475
DELFI C3 25 Jun 21:57:40 22:01:41 67° 72° (ENE) 22:05:44 145.870
PRISM 25 Jun 22:02:54 22:06:55 49° 101° (E) 22:10:53 437.425
DANDE 25 Jun 22:03:19 22:06:40 16° 287° (WNW) 22:09:35 436.750
SO-50 25 Jun 22:04:20 22:08:33 29° 0° (N) 22:12:41 436.795
M-CUBED/EXP-1 PRIME 25 Jun 22:05:37 22:07:46 16° 262° (W) 22:09:56 437.505
Cosmos 2504 25 Jun 22:05:48 22:08:53 12° 16° (NNE) 22:11:58 435.465 / 435.565
SEEDS 25 Jun 22:07:23 22:10:26 19° 271° (W) 22:13:30 437.485
DX 1 25 Jun 22:17:52 22:19:38 12° 47° (NE) 22:21:23 434.975-435.025
ZACube-1 25 Jun 22:21:55 22:25:57 44° 262° (W) 22:30:07 437.345
STRAND 1 25 Jun 22:25:38 22:30:16 34° 301° (WNW) 22:34:52 437.568
HUMSAT D 25 Jun 22:26:56 22:31:05 67° 71° (ENE) 22:35:19 437.325/437.525
AO-85 25 Jun 22:33:29 22:37:01 18° 113° (ESE) 22:40:27 145.980
ANTELSAT 25 Jun 22:33:52 22:36:07 13° 84° (E) 22:38:24 437.575/2403.000
UWE-3 25 Jun 22:36:28 22:39:57 25° 268° (W) 22:43:31 435.000/436.395/437.385
Oscar 11 25 Jun 22:38:32 22:42:24 31° 266° (W) 22:46:19 145.826/435.025
VELOX 1 25 Jun 22:40:19 22:43:32 20° 55° (NE) 22:46:44 145.980
CUBEBUG 1 25 Jun 22:40:45 22:43:58 20° 55° (NE) 22:47:10 437.445
GONETS M04 25 Jun 22:41:01 22:47:52 25° 314° (NW) 22:54:46
FUNcube-1 25 Jun 22:41:42 22:45:29 32° 265° (W) 22:49:23 145.935
YUBILEINY 25 Jun 22:47:15 22:54:28 27° 49° (NE) 23:01:40 435.215
Cosmos 2499 25 Jun 22:51:27 22:58:37 28° 311° (NW) 23:06:02 435.465 / 435.565
AAUSAT CUBESAT 2 25 Jun 22:57:59 22:59:14 11° 277° (W) 23:00:30 437.432
ESTCUBE 1 25 Jun 23:02:12 23:06:24 39° 64° (ENE) 23:10:38 437.505/2401.250
AISAT 25 Jun 23:19:37 23:23:42 38° 64° (ENE) 23:27:48 437.250
TIGRISAT 25 Jun 23:25:13 23:29:21 32° 95° (E) 23:33:33 435.000
50 SAT 25 Jun 23:28:07 23:31:37 40° 67° (ENE) 23:35:10 437.505
UNISAT 6 25 Jun 23:29:12 23:33:28 36° 96° (E) 23:37:46 437.425
DELFI C3 25 Jun 23:34:11 23:37:00 18° 271° (W) 23:39:49 145.870
UKube-1 25 Jun 23:37:10 23:41:08 37° 63° (ENE) 23:45:07 .
RS-15 25 Jun 23:38:34 23:48:59 35° 254° (WSW) 23:59:23 29.354- 29.394
PRISM 25 Jun 23:38:37 23:42:03 26° 301° (WNW) 23:45:27 437.425
TISAT 1 25 Jun 23:43:48 23:45:36 13° 49° (NE) 23:47:25 437.305
SPROUT 25 Jun 23:45:06 23:48:49 30° 62° (ENE) 23:52:35 437.525
SO-50 25 Jun 23:45:30 23:50:05 41° 24° (NNE) 23:54:31 436.795
DX 1 25 Jun 23:50:44 23:54:59 55° 68° (ENE) 23:59:15 434.975-435.025
Cosmos 2504 25 Jun 23:59:18 00:06:26 26° 47° (NE) 00:13:31 435.465 / 435.565
HUMSAT D 26 Jun 00:04:09 00:07:10 19° 271° (W) 00:10:14 437.325/437.525
Cosmos 2491 26 Jun 00:08:39 00:14:46 22° 72° (ENE) 00:20:52 435.465 / 435.565
ANTELSAT 26 Jun 00:09:01 00:13:38 75° 104° (ESE) 00:18:18 437.575/2403.000
AO-85 26 Jun 00:11:29 00:16:50 70° 133° (SE) 00:21:54 145.980
VELOX 1 26 Jun 00:15:07 00:19:33 79° 256° (WSW) 00:23:59 145.980
CUBEBUG 1 26 Jun 00:15:28 00:19:50 75° 257° (WSW) 00:24:12 437.445
SWISSCUBE 26 Jun 00:18:03 00:19:07 11° 41° (NE) 00:20:13 437.505
BUGSAT 1 26 Jun 00:20:32 00:21:34 11° 84° (E) 00:22:36 437.445
NANOSAT C BR1 26 Jun 00:22:58 00:26:24 23° 92° (E) 00:29:50 145.865
QB50P1 26 Jun 00:24:04 00:27:35 25° 93° (E) 00:31:07 145.935-145.965
POPSAT HIP 1 26 Jun 00:26:56 00:30:31 26° 93° (E) 00:34:06 437.405
QB50P2 26 Jun 00:38:16 00:42:10 34° 96° (E) 00:46:04 145.880/145.840
ESTCUBE 1 26 Jun 00:39:03 00:43:16 37° 264° (W) 00:47:30 437.505/2401.250
POLYITAN 1 26 Jun 00:40:52 00:44:48 34° 96° (E) 00:48:43 437.675
ITUPSAT 1 26 Jun 00:41:02 00:43:27 14° 46° (NE) 00:45:53 437.325
BEESAT 26 Jun 00:42:01 00:44:29 14° 46° (NE) 00:46:58 436.000
YUBILEINY 26 Jun 00:44:05 00:52:58 77° 75° (ENE) 01:01:49 435.215
DUCHIFAT 1 26 Jun 00:44:51 00:48:43 34° 96° (E) 00:52:35 145.980
GONETS M04 26 Jun 00:46:29 00:49:02 11° 346° (NNW) 00:51:36
Cosmos 2499 26 Jun 00:52:08 00:55:42 13° 341° (NNW) 00:59:18 435.465 / 435.565
AISAT 26 Jun 00:56:12 01:00:15 35° 264° (W) 01:04:19 437.250
TIGRISAT 26 Jun 01:01:50 01:06:12 45° 294° (WNW) 01:10:37 435.000
50 SAT 26 Jun 01:02:20 01:05:28 25° 266° (W) 01:08:37 437.505
UNISAT 6 26 Jun 01:05:58 01:10:14 40° 296° (WNW) 01:14:35 437.425
UKube-1 26 Jun 01:13:14 01:17:13 36° 263° (W) 01:21:14 .
TISAT 1 26 Jun 01:16:23 01:20:30 62° 70° (ENE) 01:24:39 437.305
SPROUT 26 Jun 01:20:38 01:24:41 43° 262° (W) 01:28:46 437.525
SO-50 26 Jun 01:26:08 01:30:53 68° 227° (SW) 01:35:27 436.795
DX 1 26 Jun 01:27:58 01:31:30 24° 268° (W) 01:35:03 434.975-435.025
ANTELSAT 26 Jun 01:46:25 01:49:56 22° 304° (NW) 01:53:29 437.575/2403.000
SWISSCUBE 26 Jun 01:51:18 01:55:47 41° 62° (ENE) 02:00:18 437.505
AO-85 26 Jun 01:52:35 01:57:39 43° 334° (NNW) 02:02:25 145.980
Cosmos 2504 26 Jun 01:52:43 02:01:40 71° 74° (ENE) 02:10:26 435.465 / 435.565
BUGSAT 1 26 Jun 01:53:39 01:57:43 72° 103° (ESE) 02:01:49 437.445
VELOX 1 26 Jun 01:54:37 01:56:47 13° 275° (W) 01:58:56 145.980
CUBEBUG 1 26 Jun 01:55:05 01:56:55 12° 276° (W) 01:58:45 437.445
JAS-2 26 Jun 01:55:08 02:00:56 43° 96° (E) 02:06:07 435.910
NANOSAT C BR1 26 Jun 01:58:18 02:02:27 54° 292° (WNW) 02:06:35 145.865
QB50P1 26 Jun 01:59:31 02:03:38 51° 293° (WNW) 02:07:46 145.935-145.965
Cosmos 2491 26 Jun 02:01:25 02:10:08 73° 96° (E) 02:18:51 435.465 / 435.565
POPSAT HIP 1 26 Jun 02:02:26 02:06:32 49° 293° (WNW) 02:10:39 437.405
Gurwin Techsat 1B 26 Jun 02:12:11 02:14:55 14° 83° (E) 02:17:38 435.225
QB50P2 26 Jun 02:14:06 02:18:02 37° 296° (WNW) 02:21:59 145.880/145.840
ITUPSAT 1 26 Jun 02:15:41 02:20:22 56° 67° (ENE) 02:25:07 437.325
BEESAT 26 Jun 02:16:42 02:21:23 58° 67° (ENE) 02:26:07 436.000
POLYITAN 1 26 Jun 02:16:43 02:20:39 37° 296° (WNW) 02:24:35 437.675
Oscar 19 26 Jun 02:18:37 02:23:02 28° 93° (E) 02:27:26 437.125/150
KKS-1 26 Jun 02:20:08 02:22:28 14° 49° (NE) 02:24:48 437.445
DUCHIFAT 1 26 Jun 02:20:34 02:24:29 37° 296° (WNW) 02:28:23 145.980
TIGRISAT 26 Jun 02:40:47 02:41:53 11° 315° (NW) 02:43:00 435.000
YUBILEINY 26 Jun 02:41:28 02:49:06 35° 279° (W) 02:56:45 435.215
GONETS M04 26 Jun 02:47:37 02:51:17 13° 22° (NNE) 02:54:57
Cosmos 2499 26 Jun 02:51:02 02:54:06 12° 15° (NNE) 02:57:09 435.465 / 435.565
TISAT 1 26 Jun 02:53:28 02:56:34 20° 270° (W) 02:59:41 437.305
STARS 26 Jun 02:59:57 03:02:43 17° 52° (NE) 03:05:30 437.465
